^^
Saratoga-Weather Station Historical Data
Daily Summary for August 29, 2021 Units:  Metric    English   Both
Daily Weekly Monthly Yearly Custom
  High: Low: Average:
Temperature: 18.1 °C 13.8 °C 15.6 °C
Dew Point: 13.4 °C 11.1 °C 12.5 °C
Humidity: 92% 72% 82%
Wind Speed: 16.3km/h 0km/h 4.7km/h
Wind Gust: 17.7km/h - -
Wind- - West
Pressure: 1019.0 hPa 1016.9 hPa -
Precipitation: 0.2 mm    
Historical Graphs
 
 
Tabular Data for August 29, 2021
Time Temperature Dew Point Pressure Wind Wind Speed Wind Gust Humidity Rainfall Rate (Hourly) solar
00:04 14.9 °C 12.9 °C 1018.6 hPa WNW 3.2 km/h 6.4 km/h 88% 0.0 mm 0 W/m2
00:09 14.9 °C 12.9 °C 1018.6 hPa West 1.4 km/h 11.3 km/h 88% 0.0 mm 0 W/m2
00:14 14.9 °C 12.9 °C 1018.6 hPa WNW 3.2 km/h 6.4 km/h 88% 0.0 mm 0 W/m2
00:19 14.9 °C 12.9 °C 1018.6 hPa West 9.7 km/h 9.7 km/h 88% 0.0 mm 0 W/m2
00:24 14.9 °C 12.9 °C 1018.6 hPa WNW 1.4 km/h 4.8 km/h 88% 0.0 mm 0 W/m2
00:29 14.9 °C 12.9 °C 1018.6 hPa WNW 7.9 km/h 14.5 km/h 88% 0.0 mm 0 W/m2
00:34 14.9 °C 12.9 °C 1018.6 hPa WSW 6.4 km/h 11.3 km/h 88% 0.0 mm 0 W/m2
00:39 14.9 °C 12.9 °C 1018.6 hPa West 1.4 km/h 11.3 km/h 88% 0.0 mm 0 W/m2
00:44 15 °C 12.9 °C 1018.6 hPa West 3.2 km/h 3.2 km/h 87% 0.0 mm 0 W/m2
00:49 15 °C 12.9 °C 1018.6 hPa West 1.4 km/h 3.2 km/h 87% 0.0 mm 0 W/m2
00:54 14.9 °C 12.8 °C 1018.6 hPa West 1.4 km/h 3.2 km/h 87% 0.0 mm 0 W/m2
00:59 14.9 °C 12.9 °C 1019.0 hPa West 3.2 km/h 3.2 km/h 88% 0.0 mm 0 W/m2
01:04 14.9 °C 12.9 °C 1018.6 hPa West 4.7 km/h 6.4 km/h 88% 0.0 mm 0 W/m2
01:09 15.1 °C 13 °C 1018.6 hPa Calm   1.6 km/h 87% 0.0 mm 0 W/m2
01:14 15.2 °C 13 °C 1018.6 hPa NW 3.2 km/h 6.4 km/h 87% 0.0 mm 0 W/m2
01:19 15.3 °C 13 °C 1018.6 hPa North 6.4 km/h 11.3 km/h 86% 0.0 mm 0 W/m2
01:24 15.5 °C 13 °C 1018.6 hPa NW 1.4 km/h 4.8 km/h 85% 0.0 mm 0 W/m2
01:29 15.6 °C 13.1 °C 1018.6 hPa WSW 3.2 km/h 4.8 km/h 85% 0.0 mm 0 W/m2
01:34 15.6 °C 12.9 °C 1018.6 hPa ENE 1.4 km/h 6.4 km/h 84% 0.0 mm 0 W/m2
01:39 15.6 °C 12.9 °C 1018.6 hPa ENE 4.7 km/h 4.8 km/h 84% 0.0 mm 0 W/m2
01:44 15.6 °C 12.9 °C 1018.6 hPa North 4.7 km/h 9.7 km/h 84% 0.0 mm 0 W/m2
01:49 15.4 °C 12.7 °C 1018.6 hPa SW 3.2 km/h 6.4 km/h 84% 0.0 mm 0 W/m2
01:54 15.4 °C 12.7 °C 1018.6 hPa WNW 4.7 km/h 6.4 km/h 84% 0.0 mm 0 W/m2
01:59 15.3 °C 12.6 °C 1018.6 hPa North 6.4 km/h 8 km/h 84% 0.0 mm 0 W/m2
02:04 15.3 °C 12.6 °C 1018.3 hPa North 3.2 km/h 9.7 km/h 84% 0.0 mm 0 W/m2
02:09 15.2 °C 12.5 °C 1018.6 hPa West 4.7 km/h 8 km/h 84% 0.0 mm 0 W/m2
02:14 15.2 °C 12.5 °C 1018.6 hPa NW 1.4 km/h 6.4 km/h 84% 0.0 mm 0 W/m2
02:19 15.2 °C 12.5 °C 1018.6 hPa WNW 6.4 km/h 11.3 km/h 84% 0.0 mm 0 W/m2
02:24 15.1 °C 12.4 °C 1018.6 hPa ENE 1.4 km/h 6.4 km/h 84% 0.0 mm 0 W/m2
02:29 15.1 °C 12.4 °C 1018.6 hPa WNW 4.7 km/h 8 km/h 84% 0.0 mm 0 W/m2
02:34 15.1 °C 12.4 °C 1018.6 hPa NNE 1.4 km/h 3.2 km/h 84% 0.0 mm 0 W/m2
02:39 15.1 °C 12.4 °C 1018.6 hPa NNW 1.4 km/h 6.4 km/h 84% 0.0 mm 0 W/m2
02:44 15.1 °C 12.4 °C 1018.6 hPa NW 3.2 km/h 4.8 km/h 84% 0.0 mm 0 W/m2
02:49 15.1 °C 12.2 °C 1018.3 hPa SSW 1.4 km/h 6.4 km/h 83% 0.0 mm 0 W/m2
02:54 15.2 °C 12.1 °C 1018.3 hPa WSW 3.2 km/h 4.8 km/h 82% 0.0 mm 0 W/m2
02:59 15.1 °C 12 °C 1018.3 hPa North 3.2 km/h 11.3 km/h 82% 0.0 mm 0 W/m2
03:04 15.1 °C 12 °C 1018.3 hPa Calm   8 km/h 82% 0.0 mm 0 W/m2
03:09 15 °C 12 °C 1018.3 hPa WNW 3.2 km/h 6.4 km/h 82% 0.0 mm 0 W/m2
03:14 14.9 °C 12 °C 1018.3 hPa North 1.4 km/h 6.4 km/h 83% 0.0 mm 0 W/m2
03:19 14.9 °C 12 °C 1018.3 hPa West 3.2 km/h 4.8 km/h 83% 0.0 mm 0 W/m2
03:24 14.7 °C 11.8 °C 1018.3 hPa West 1.4 km/h 4.8 km/h 83% 0.0 mm 0 W/m2
03:29 14.6 °C 11.9 °C 1018.0 hPa Calm   1.6 km/h 84% 0.0 mm 0 W/m2
03:34 14.3 °C 11.6 °C 1018.0 hPa West 1.4 km/h 4.8 km/h 84% 0.0 mm 0 W/m2
03:39 14.2 °C 11.7 °C 1018.0 hPa Calm   4.8 km/h 85% 0.0 mm 0 W/m2
03:44 14.1 °C 11.8 °C 1018.0 hPa WSW 4.7 km/h 6.4 km/h 86% 0.0 mm 0 W/m2
03:49 14 °C 11.7 °C 1018.0 hPa WSW 3.2 km/h 6.4 km/h 86% 0.0 mm 0 W/m2
03:54 13.9 °C 11.6 °C 1018.0 hPa West 6.4 km/h 8 km/h 86% 0.0 mm 0 W/m2
03:59 13.9 °C 11.8 °C 1018.0 hPa WSW 11.1 km/h 12.9 km/h 87% 0.0 mm 0 W/m2
04:04 13.9 °C 11.8 °C 1018.0 hPa West 3.2 km/h 6.4 km/h 87% 0.0 mm 0 W/m2
04:09 13.8 °C 11.7 °C 1018.0 hPa WNW 3.2 km/h 11.3 km/h 87% 0.0 mm 0 W/m2
04:14 13.8 °C 11.7 °C 1018.0 hPa West 4.7 km/h 14.5 km/h 87% 0.0 mm 0 W/m2
04:19 13.8 °C 11.7 °C 1018.0 hPa West 9.7 km/h 9.7 km/h 87% 0.0 mm 0 W/m2
04:24 13.8 °C 11.8 °C 1018.0 hPa West 4.7 km/h 9.7 km/h 88% 0.0 mm 0 W/m2
04:29 13.8 °C 11.8 °C 1018.0 hPa West 3.2 km/h 6.4 km/h 88% 0.0 mm 0 W/m2
04:34 13.8 °C 11.8 °C 1018.0 hPa West 6.4 km/h 6.4 km/h 88% 0.0 mm 0 W/m2
04:39 13.8 °C 11.8 °C 1018.0 hPa West 4.7 km/h 9.7 km/h 88% 0.0 mm 0 W/m2
04:45 13.9 °C 11.9 °C 1018.0 hPa West 1.4 km/h 3.2 km/h 88% 0.0 mm 0 W/m2
04:50 13.9 °C 11.8 °C 1018.0 hPa West 3.2 km/h 11.3 km/h 87% 0.0 mm 0 W/m2
04:55 13.9 °C 11.8 °C 1018.0 hPa Calm   3.2 km/h 87% 0.0 mm 0 W/m2
05:00 14 °C 11.9 °C 1018.0 hPa WSW 4.7 km/h 11.3 km/h 87% 0.0 mm 0 W/m2
05:05 14 °C 11.9 °C 1018.0 hPa Calm   1.6 km/h 87% 0.0 mm 0 W/m2
05:10 14 °C 11.9 °C 1018.0 hPa West 4.7 km/h 4.8 km/h 87% 0.0 mm 0 W/m2
05:15 14 °C 11.9 °C 1018.0 hPa West 6.4 km/h 6.4 km/h 87% 0.0 mm 0 W/m2
05:20 14 °C 11.7 °C 1018.0 hPa West 3.2 km/h 6.4 km/h 86% 0.0 mm 0 W/m2
05:25 14 °C 11.7 °C 1018.0 hPa WSW 4.7 km/h 4.8 km/h 86% 0.0 mm 0 W/m2
05:30 14.1 °C 11.8 °C 1018.0 hPa WNW 3.2 km/h 9.7 km/h 86% 0.0 mm 0 W/m2
05:35 14.1 °C 11.8 °C 1018.0 hPa West 3.2 km/h 9.7 km/h 86% 0.0 mm 0 W/m2
05:40 14.1 °C 11.8 °C 1018.0 hPa West 6.4 km/h 11.3 km/h 86% 0.0 mm 0 W/m2
05:45 14.1 °C 11.8 °C 1018.0 hPa WSW 4.7 km/h 9.7 km/h 86% 0.0 mm 0 W/m2
05:50 14.1 °C 11.8 °C 1018.0 hPa WNW 4.7 km/h 6.4 km/h 86% 0.0 mm 0 W/m2
05:55 14.1 °C 11.8 °C 1018.0 hPa West 3.2 km/h 11.3 km/h 86% 0.0 mm 0 W/m2
06:00 14.1 °C 11.8 °C 1018.0 hPa WNW 6.4 km/h 11.3 km/h 86% 0.0 mm 0 W/m2
06:05 14.2 °C 11.7 °C 1018.0 hPa West 3.2 km/h 4.8 km/h 85% 0.0 mm 0 W/m2
06:10 14.1 °C 11.6 °C 1018.0 hPa Calm   8 km/h 85% 0.0 mm 0 W/m2
06:15 14.1 °C 11.6 °C 1018.0 hPa WNW 3.2 km/h 3.2 km/h 85% 0.0 mm 0 W/m2
06:20 14.2 °C 11.5 °C 1018.0 hPa NW 3.2 km/h 6.4 km/h 84% 0.0 mm 0 W/m2
06:25 14.3 °C 11.8 °C 1018.0 hPa Calm   4.8 km/h 85% 0.0 mm 0 W/m2
06:30 14.2 °C 11.5 °C 1018.0 hPa West 3.2 km/h 4.8 km/h 84% 0.0 mm 0 W/m2
06:35 14.2 °C 11.5 °C 1017.6 hPa WNW 1.4 km/h 12.9 km/h 84% 0.0 mm 0 W/m2
06:40 14.2 °C 11.5 °C 1017.6 hPa WNW 3.2 km/h 11.3 km/h 84% 0.0 mm 0 W/m2
06:45 14.3 °C 11.6 °C 1018.0 hPa NNW 3.2 km/h 4.8 km/h 84% 0.0 mm 0 W/m2
06:50 14.3 °C 11.6 °C 1018.0 hPa NW 1.4 km/h 6.4 km/h 84% 0.0 mm 0 W/m2
06:55 14.2 °C 11.5 °C 1017.6 hPa WSW 3.2 km/h 6.4 km/h 84% 0.0 mm 0 W/m2
07:00 14.2 °C 11.5 °C 1018.0 hPa WSW 3.2 km/h 4.8 km/h 84% 0.0 mm 0 W/m2
07:05 14.2 °C 11.5 °C 1017.6 hPa West 3.2 km/h 11.3 km/h 84% 0.0 mm 5 W/m2
07:10 14.2 °C 11.5 °C 1017.6 hPa West 3.2 km/h 4.8 km/h 84% 0.0 mm 7 W/m2
07:15 14.2 °C 11.5 °C 1018.0 hPa Calm   4.8 km/h 84% 0.0 mm 11 W/m2
07:20 14.2 °C 11.5 °C 1018.0 hPa ESE 3.2 km/h 6.4 km/h 84% 0.0 mm 12 W/m2
07:25 14.2 °C 11.4 °C 1018.0 hPa Calm   3.2 km/h 83% 0.0 mm 16 W/m2
07:30 14.3 °C 11.5 °C 1018.0 hPa WNW 1.4 km/h 3.2 km/h 83% 0.0 mm 23 W/m2
07:35 14.3 °C 11.3 °C 1018.0 hPa East 1.4 km/h 6.4 km/h 82% 0.0 mm 28 W/m2
07:40 14.4 °C 11.4 °C 1018.0 hPa ENE 1.4 km/h 4.8 km/h 82% 0.0 mm 35 W/m2
07:45 14.5 °C 11.1 °C 1018.0 hPa NNW 1.4 km/h 4.8 km/h 80% 0.0 mm 42 W/m2
07:50 14.7 °C 11.3 °C 1018.0 hPa NNW 4.7 km/h 4.8 km/h 80% 0.0 mm 62 W/m2
07:55 14.8 °C 11.2 °C 1018.0 hPa NE 3.2 km/h 9.7 km/h 79% 0.0 mm 69 W/m2
08:00 15 °C 11.2 °C 1018.0 hPa East 1.4 km/h 9.7 km/h 78% 0.0 mm 69 W/m2
08:05 15.1 °C 11.1 °C 1018.0 hPa WNW 3.2 km/h 12.9 km/h 77% 0.0 mm 76 W/m2
08:10 15.2 °C 11.4 °C 1018.0 hPa Calm   1.6 km/h 78% 0.0 mm 120 W/m2
08:15 15.3 °C 11.3 °C 1018.0 hPa NNW 3.2 km/h 6.4 km/h 77% 0.0 mm 114 W/m2
08:20 15.6 °C 11.6 °C 1018.0 hPa NNW 6.4 km/h 9.7 km/h 77% 0.0 mm 139 W/m2
08:25 15.7 °C 11.3 °C 1018.0 hPa West 4.7 km/h 11.3 km/h 75% 0.0 mm 199 W/m2
08:30 15.8 °C 11.4 °C 1018.0 hPa East 1.4 km/h 8 km/h 75% 0.0 mm 257 W/m2
08:35 16 °C 11.6 °C 1018.0 hPa WSW 7.9 km/h 11.3 km/h 75% 0.0 mm 139 W/m2
08:40 16.1 °C 11.7 °C 1018.0 hPa WNW 6.4 km/h 6.4 km/h 75% 0.0 mm 113 W/m2
08:45 15.9 °C 11.7 °C 1018.0 hPa WNW 1.4 km/h 11.3 km/h 76% 0.0 mm 107 W/m2
08:50 15.8 °C 11.8 °C 1018.0 hPa WNW 6.4 km/h 11.3 km/h 77% 0.0 mm 123 W/m2
08:55 15.6 °C 11.8 °C 1018.0 hPa West 3.2 km/h 6.4 km/h 78% 0.0 mm 123 W/m2
09:00 15.5 °C 11.7 °C 1018.0 hPa WSW 6.4 km/h 11.3 km/h 78% 0.0 mm 98 W/m2
09:05 15.4 °C 11.8 °C 1018.0 hPa WNW 6.4 km/h 9.7 km/h 79% 0.0 mm 77 W/m2
09:10 15.4 °C 11.6 °C 1018.0 hPa West 4.7 km/h 6.4 km/h 78% 0.0 mm 105 W/m2
09:15 15.4 °C 11.6 °C 1018.0 hPa WNW 4.7 km/h 6.4 km/h 78% 0.0 mm 118 W/m2
09:20 15.4 °C 11.6 °C 1018.0 hPa West 6.4 km/h 8 km/h 78% 0.0 mm 121 W/m2
09:25 15.5 °C 11.7 °C 1018.0 hPa WNW 6.4 km/h 11.3 km/h 78% 0.0 mm 128 W/m2
09:30 15.6 °C 11.8 °C 1018.0 hPa NW 4.7 km/h 6.4 km/h 78% 0.0 mm 104 W/m2
09:35 15.6 °C 11.8 °C 1018.0 hPa WSW 3.2 km/h 12.9 km/h 78% 0.0 mm 90 W/m2
09:40 15.6 °C 12 °C 1018.0 hPa NNW 4.7 km/h 11.3 km/h 79% 0.0 mm 102 W/m2
09:45 15.6 °C 11.8 °C 1018.0 hPa West 3.2 km/h 12.9 km/h 78% 0.0 mm 97 W/m2
09:50 15.6 °C 11.8 °C 1018.0 hPa WNW 7.9 km/h 8 km/h 78% 0.0 mm 67 W/m2
09:55 15.5 °C 11.7 °C 1018.0 hPa West 4.7 km/h 11.3 km/h 78% 0.0 mm 60 W/m2
10:00 15.6 °C 11.8 °C 1018.0 hPa NW 1.4 km/h 8 km/h 78% 0.0 mm 74 W/m2
10:05 15.6 °C 11.8 °C 1018.0 hPa West 3.2 km/h 8 km/h 78% 0.0 mm 128 W/m2
10:10 15.7 °C 11.9 °C 1018.0 hPa West 3.2 km/h 6.4 km/h 78% 0.0 mm 95 W/m2
10:15 15.7 °C 11.9 °C 1018.0 hPa WNW 6.4 km/h 11.3 km/h 78% 0.0 mm 120 W/m2
10:20 15.8 °C 12 °C 1018.0 hPa WNW 7.9 km/h 14.5 km/h 78% 0.0 mm 130 W/m2
10:25 15.9 °C 12.1 °C 1018.0 hPa WSW 6.4 km/h 14.5 km/h 78% 0.0 mm 202 W/m2
10:30 16 °C 12.2 °C 1018.0 hPa NW 4.7 km/h 6.4 km/h 78% 0.0 mm 202 W/m2
10:35 16.1 °C 12.1 °C 1018.0 hPa WNW 3.2 km/h 14.5 km/h 77% 0.0 mm 163 W/m2
10:40 16.2 °C 12.2 °C 1018.0 hPa West 11.1 km/h 12.9 km/h 77% 0.0 mm 146 W/m2
10:45 16.2 °C 12.2 °C 1018.0 hPa NW 11.1 km/h 11.3 km/h 77% 0.0 mm 105 W/m2
10:50 16.2 °C 12.2 °C 1018.0 hPa WSW 3.2 km/h 8 km/h 77% 0.0 mm 120 W/m2
10:55 16.2 °C 12.2 °C 1018.0 hPa West 1.4 km/h 6.4 km/h 77% 0.0 mm 130 W/m2
11:01 16.3 °C 12.3 °C 1018.0 hPa North 7.9 km/h 12.9 km/h 77% 0.0 mm 134 W/m2
11:06 16.3 °C 12.1 °C 1018.0 hPa West 4.7 km/h 12.9 km/h 76% 0.0 mm 125 W/m2
11:11 16.4 °C 12.2 °C 1018.0 hPa West 4.7 km/h 4.8 km/h 76% 0.0 mm 125 W/m2
11:16 16.4 °C 12.4 °C 1018.0 hPa NW 3.2 km/h 12.9 km/h 77% 0.0 mm 100 W/m2
11:21 16.4 °C 12.2 °C 1018.0 hPa West 4.7 km/h 12.9 km/h 76% 0.0 mm 76 W/m2
11:26 16.4 °C 12.2 °C 1018.0 hPa West 4.7 km/h 17.7 km/h 76% 0.0 mm 93 W/m2
11:31 16.4 °C 12.2 °C 1018.0 hPa SSW 3.2 km/h 6.4 km/h 76% 0.0 mm 91 W/m2
11:36 16.4 °C 12.4 °C 1018.3 hPa WNW 4.7 km/h 17.7 km/h 77% 0.0 mm 104 W/m2
11:41 16.4 °C 12.2 °C 1018.0 hPa West 4.7 km/h 11.3 km/h 76% 0.0 mm 146 W/m2
11:46 16.5 °C 12.3 °C 1018.0 hPa WNW 6.4 km/h 14.5 km/h 76% 0.0 mm 165 W/m2
11:51 16.5 °C 12.3 °C 1018.0 hPa NW 7.9 km/h 12.9 km/h 76% 0.0 mm 190 W/m2
11:56 16.6 °C 12.1 °C 1018.0 hPa West 11.1 km/h 11.3 km/h 75% 0.0 mm 236 W/m2
12:01 16.7 °C 12.4 °C 1018.0 hPa West 4.7 km/h 8 km/h 76% 0.0 mm 258 W/m2
12:06 16.8 °C 12.3 °C 1018.0 hPa WNW 3.2 km/h 12.9 km/h 75% 0.0 mm 294 W/m2
12:11 16.9 °C 12.4 °C 1018.0 hPa NW 3.2 km/h 11.3 km/h 75% 0.0 mm 285 W/m2
12:16 17 °C 12.5 °C 1018.0 hPa WNW 4.7 km/h 12.9 km/h 75% 0.0 mm 251 W/m2
12:21 17.1 °C 12.4 °C 1018.0 hPa NW 3.2 km/h 6.4 km/h 74% 0.0 mm 141 W/m2
12:26 17 °C 12.3 °C 1018.0 hPa WNW 3.2 km/h 11.3 km/h 74% 0.0 mm 113 W/m2
12:31 16.9 °C 12.4 °C 1018.0 hPa West 3.2 km/h 6.4 km/h 75% 0.0 mm 139 W/m2
12:36 16.9 °C 12.6 °C 1018.0 hPa NW 4.7 km/h 11.3 km/h 76% 0.0 mm 135 W/m2
12:41 16.9 °C 12.6 °C 1018.0 hPa West 3.2 km/h 4.8 km/h 76% 0.0 mm 179 W/m2
12:46 17.2 °C 12.7 °C 1018.0 hPa NW 4.7 km/h 8 km/h 75% 0.0 mm 260 W/m2
12:51 17.4 °C 12.7 °C 1017.6 hPa West 4.7 km/h 6.4 km/h 74% 0.0 mm 287 W/m2
12:56 17.6 °C 12.9 °C 1017.6 hPa WNW 4.7 km/h 6.4 km/h 74% 0.0 mm 192 W/m2
13:01 17.6 °C 12.9 °C 1017.6 hPa NW 7.9 km/h 14.5 km/h 74% 0.0 mm 163 W/m2
13:06 17.6 °C 12.7 °C 1017.6 hPa West 4.7 km/h 11.3 km/h 73% 0.0 mm 134 W/m2
13:11 17.4 °C 12.7 °C 1017.6 hPa West 6.4 km/h 14.5 km/h 74% 0.0 mm 120 W/m2
13:16 17.4 °C 12.7 °C 1017.6 hPa WNW 6.4 km/h 12.9 km/h 74% 0.0 mm 116 W/m2
13:21 17.3 °C 12.6 °C 1017.6 hPa West 4.7 km/h 14.5 km/h 74% 0.0 mm 111 W/m2
13:26 17.3 °C 12.6 °C 1017.6 hPa West 6.4 km/h 11.3 km/h 74% 0.0 mm 98 W/m2
13:31 17.3 °C 12.6 °C 1017.6 hPa WSW 7.9 km/h 14.5 km/h 74% 0.0 mm 127 W/m2
13:36 17.3 °C 12.8 °C 1017.6 hPa NW 7.9 km/h 16.1 km/h 75% 0.0 mm 151 W/m2
13:41 17.4 °C 12.9 °C 1017.6 hPa WNW 4.7 km/h 11.3 km/h 75% 0.0 mm 158 W/m2
13:46 17.4 °C 12.7 °C 1017.6 hPa West 6.4 km/h 16.1 km/h 74% 0.0 mm 142 W/m2
13:51 17.5 °C 12.8 °C 1017.6 hPa NNW 4.7 km/h 12.9 km/h 74% 0.0 mm 148 W/m2
13:56 17.6 °C 13.1 °C 1017.6 hPa West 9.7 km/h 14.5 km/h 75% 0.0 mm 139 W/m2
14:01 17.6 °C 13.1 °C 1017.6 hPa NW 4.7 km/h 11.3 km/h 75% 0.0 mm 174 W/m2
14:06 17.5 °C 13 °C 1017.6 hPa West 11.1 km/h 11.3 km/h 75% 0.0 mm 190 W/m2
14:11 17.4 °C 13.1 °C 1017.6 hPa WNW 6.4 km/h 11.3 km/h 76% 0.0 mm 183 W/m2
14:16 17.3 °C 12.8 °C 1017.6 hPa WSW 6.4 km/h 14.5 km/h 75% 0.0 mm 195 W/m2
14:21 17.3 °C 12.8 °C 1017.6 hPa NW 7.9 km/h 14.5 km/h 75% 0.0 mm 218 W/m2
14:26 17.3 °C 12.6 °C 1017.6 hPa WNW 3.2 km/h 6.4 km/h 74% 0.0 mm 237 W/m2
14:31 17.6 °C 12.9 °C 1017.6 hPa NW 4.7 km/h 8 km/h 74% 0.0 mm 281 W/m2
14:36 17.7 °C 12.8 °C 1017.6 hPa North 4.7 km/h 11.3 km/h 73% 0.0 mm 250 W/m2
14:41 17.8 °C 12.9 °C 1017.6 hPa NNW 6.4 km/h 11.3 km/h 73% 0.0 mm 221 W/m2
14:46 17.8 °C 12.9 °C 1017.6 hPa NE 1.4 km/h 4.8 km/h 73% 0.0 mm 183 W/m2
14:51 17.8 °C 13.1 °C 1017.6 hPa WNW 3.2 km/h 8 km/h 74% 0.0 mm 216 W/m2
14:56 17.8 °C 12.9 °C 1017.6 hPa WSW 3.2 km/h 6.4 km/h 73% 0.0 mm 204 W/m2
15:01 17.8 °C 12.9 °C 1017.6 hPa NW 3.2 km/h 6.4 km/h 73% 0.0 mm 204 W/m2
15:06 17.9 °C 13.2 °C 1017.6 hPa NNW 3.2 km/h 8 km/h 74% 0.0 mm 207 W/m2
15:11 18.1 °C 13 °C 1017.3 hPa ENE 1.4 km/h 6.4 km/h 72% 0.0 mm 105 W/m2
15:16 18.1 °C 13.2 °C 1017.3 hPa East 1.4 km/h 9.7 km/h 73% 0.0 mm 37 W/m2
15:21 17.9 °C 13 °C 1017.6 hPa WSW 16.3 km/h 16.1 km/h 73% 0.0 mm 25 W/m2
15:26 17.8 °C 12.7 °C 1017.6 hPa NW 3.2 km/h 9.7 km/h 72% 0.0 mm 35 W/m2
15:31 17.8 °C 12.9 °C 1017.6 hPa West 3.2 km/h 4.8 km/h 73% 0.0 mm 49 W/m2
15:36 17.7 °C 12.8 °C 1017.6 hPa NW 3.2 km/h 6.4 km/h 73% 0.0 mm 58 W/m2
15:41 17.6 °C 12.7 °C 1017.6 hPa North 6.4 km/h 8 km/h 73% 0.0 mm 56 W/m2
15:46 17.4 °C 12.7 °C 1017.6 hPa WNW 4.7 km/h 8 km/h 74% 0.0 mm 67 W/m2
15:51 17.3 °C 12.6 °C 1017.6 hPa NW 4.7 km/h 11.3 km/h 74% 0.0 mm 72 W/m2
15:56 17.3 °C 12.6 °C 1017.6 hPa NNE 1.4 km/h 6.4 km/h 74% 0.0 mm 84 W/m2
16:01 17.3 °C 12.8 °C 1017.6 hPa NW 6.4 km/h 11.3 km/h 75% 0.0 mm 88 W/m2
16:06 17.3 °C 13 °C 1017.6 hPa West 9.7 km/h 12.9 km/h 76% 0.0 mm 132 W/m2
16:11 17.3 °C 12.8 °C 1017.6 hPa Calm   8 km/h 75% 0.0 mm 148 W/m2
16:16 17.3 °C 12.8 °C 1017.6 hPa WNW 4.7 km/h 11.3 km/h 75% 0.0 mm 250 W/m2
16:21 17.5 °C 13 °C 1017.3 hPa West 6.4 km/h 8 km/h 75% 0.0 mm 302 W/m2
16:26 17.7 °C 13.2 °C 1017.3 hPa West 6.4 km/h 9.7 km/h 75% 0.0 mm 202 W/m2
16:32 17.7 °C 12.8 °C 1017.3 hPa WNW 6.4 km/h 16.1 km/h 73% 0.0 mm 192 W/m2
16:37 17.7 °C 13.4 °C 1017.6 hPa WNW 7.9 km/h 17.7 km/h 76% 0.0 mm 264 W/m2
16:42 17.6 °C 12.9 °C 1017.6 hPa West 4.7 km/h 9.7 km/h 74% 0.0 mm 255 W/m2
16:47 17.6 °C 13.1 °C 1017.6 hPa West 4.7 km/h 12.9 km/h 75% 0.0 mm 236 W/m2
16:52 17.5 °C 13 °C 1017.6 hPa NNW 9.7 km/h 12.9 km/h 75% 0.0 mm 197 W/m2
16:57 17.4 °C 12.9 °C 1017.6 hPa North 6.4 km/h 11.3 km/h 75% 0.0 mm 113 W/m2
17:02 17.3 °C 12.8 °C 1017.6 hPa North 4.7 km/h 16.1 km/h 75% 0.0 mm 77 W/m2
17:07 17.2 °C 13.1 °C 1017.6 hPa WNW 6.4 km/h 14.5 km/h 77% 0.0 mm 118 W/m2
17:12 17.1 °C 13 °C 1017.3 hPa West 4.7 km/h 16.1 km/h 77% 0.0 mm 121 W/m2
17:17 16.9 °C 13 °C 1017.3 hPa NW 4.7 km/h 9.7 km/h 78% 0.0 mm 118 W/m2
17:22 16.8 °C 12.9 °C 1017.3 hPa WNW 4.7 km/h 14.5 km/h 78% 0.0 mm 111 W/m2
17:27 16.7 °C 13 °C 1017.3 hPa WNW 6.4 km/h 9.7 km/h 79% 0.0 mm 90 W/m2
17:32 16.6 °C 12.9 °C 1017.3 hPa WNW 7.9 km/h 8 km/h 79% 0.0 mm 72 W/m2
17:37 16.6 °C 13.1 °C 1017.3 hPa NW 3.2 km/h 4.8 km/h 80% 0.0 mm 102 W/m2
17:42 16.7 °C 13.2 °C 1017.3 hPa WNW 13 km/h 12.9 km/h 80% 0.0 mm 114 W/m2
17:47 16.6 °C 13.1 °C 1017.3 hPa WSW 4.7 km/h 16.1 km/h 80% 0.0 mm 97 W/m2
17:52 16.5 °C 13 °C 1017.3 hPa WNW 4.7 km/h 11.3 km/h 80% 0.0 mm 93 W/m2
17:57 16.4 °C 13.1 °C 1017.3 hPa West 6.4 km/h 14.5 km/h 81% 0.0 mm 84 W/m2
18:02 16.3 °C 12.8 °C 1017.3 hPa SW 9.7 km/h 11.3 km/h 80% 0.0 mm 69 W/m2
18:07 16.3 °C 13 °C 1017.3 hPa WSW 6.4 km/h 8 km/h 81% 0.0 mm 63 W/m2
18:12 16.3 °C 13 °C 1016.9 hPa West 9.7 km/h 9.7 km/h 81% 0.0 mm 60 W/m2
18:17 16.3 °C 13 °C 1016.9 hPa NW 6.4 km/h 12.9 km/h 81% 0.0 mm 54 W/m2
18:22 16.2 °C 12.9 °C 1016.9 hPa WNW 4.7 km/h 11.3 km/h 81% 0.0 mm 46 W/m2
18:27 16.2 °C 13.1 °C 1016.9 hPa WNW 4.7 km/h 12.9 km/h 82% 0.0 mm 40 W/m2
18:32 16.2 °C 13.1 °C 1016.9 hPa WSW 11.1 km/h 12.9 km/h 82% 0.0 mm 35 W/m2
18:37 16.1 °C 13 °C 1016.9 hPa West 9.7 km/h 9.7 km/h 82% 0.0 mm 39 W/m2
18:42 16.1 °C 13 °C 1016.9 hPa WNW 7.9 km/h 12.9 km/h 82% 0.0 mm 40 W/m2
18:47 16.1 °C 13 °C 1016.9 hPa WNW 4.7 km/h 6.4 km/h 82% 0.0 mm 37 W/m2
18:52 16.1 °C 13 °C 1016.9 hPa WNW 11.1 km/h 14.5 km/h 82% 0.0 mm 39 W/m2
18:57 16.1 °C 13 °C 1017.3 hPa NNW 4.7 km/h 12.9 km/h 82% 0.0 mm 44 W/m2
19:02 16.1 °C 13 °C 1016.9 hPa NW 4.7 km/h 14.5 km/h 82% 0.0 mm 40 W/m2
19:07 16.1 °C 13 °C 1016.9 hPa WNW 3.2 km/h 9.7 km/h 82% 0.0 mm 39 W/m2
19:12 16.1 °C 13 °C 1016.9 hPa WNW 4.7 km/h 6.4 km/h 82% 0.0 mm 28 W/m2
19:17 16.1 °C 13 °C 1016.9 hPa WNW 4.7 km/h 8 km/h 82% 0.0 mm 16 W/m2
19:22 16 °C 12.9 °C 1016.9 hPa NW 1.4 km/h 8 km/h 82% 0.0 mm 11 W/m2
19:27 16.1 °C 13 °C 1016.9 hPa West 3.2 km/h 8 km/h 82% 0.0 mm 9 W/m2
19:32 16 °C 12.9 °C 1016.9 hPa WNW 3.2 km/h 9.7 km/h 82% 0.0 mm 9 W/m2
19:37 16 °C 12.9 °C 1016.9 hPa NW 6.4 km/h 11.3 km/h 82% 0.0 mm 9 W/m2
19:42 16 °C 12.9 °C 1016.9 hPa West 11.1 km/h 12.9 km/h 82% 0.0 mm 7 W/m2
19:47 16 °C 12.9 °C 1016.9 hPa West 6.4 km/h 14.5 km/h 82% 0.0 mm 7 W/m2
19:52 15.9 °C 12.8 °C 1016.9 hPa West 4.7 km/h 6.4 km/h 82% 0.0 mm 5 W/m2
19:57 15.9 °C 12.8 °C 1016.9 hPa WNW 6.4 km/h 14.5 km/h 82% 0.0 mm 0 W/m2
20:02 15.9 °C 12.8 °C 1016.9 hPa West 3.2 km/h 9.7 km/h 82% 0.0 mm 0 W/m2
20:07 15.9 °C 12.8 °C 1016.9 hPa West 6.4 km/h 12.9 km/h 82% 0.0 mm 0 W/m2
20:12 15.8 °C 12.7 °C 1016.9 hPa WNW 4.7 km/h 11.3 km/h 82% 0.0 mm 0 W/m2
20:17 15.8 °C 12.9 °C 1017.3 hPa West 9.7 km/h 12.9 km/h 83% 0.0 mm 0 W/m2
20:22 15.8 °C 12.9 °C 1017.3 hPa WNW 3.2 km/h 4.8 km/h 83% 0.0 mm 0 W/m2
20:27 15.7 °C 13 °C 1017.3 hPa West 3.2 km/h 12.9 km/h 84% 0.0 mm 0 W/m2
20:32 15.6 °C 13.1 °C 1017.3 hPa West 3.2 km/h 4.8 km/h 85% 0.0 mm 0 W/m2
20:37 15.4 °C 13.1 °C 1017.3 hPa West 6.4 km/h 11.3 km/h 86% 0.0 mm 0 W/m2
20:42 15.3 °C 13 °C 1017.3 hPa WNW 6.4 km/h 11.3 km/h 86% 0.0 mm 0 W/m2
20:47 15.2 °C 13.2 °C 1017.3 hPa WSW 4.7 km/h 6.4 km/h 88% 0.0 mm 0 W/m2
20:52 15 °C 13.2 °C 1017.3 hPa West 4.7 km/h 9.7 km/h 89% 0.0 mm 0 W/m2
20:57 14.8 °C 13 °C 1017.3 hPa West 6.4 km/h 11.3 km/h 89% 0.0 mm 0 W/m2
21:02 14.7 °C 13.1 °C 1017.3 hPa WNW 4.7 km/h 6.4 km/h 90% 0.0 mm 0 W/m2
21:07 14.6 °C 13.1 °C 1017.3 hPa WNW 4.7 km/h 11.3 km/h 91% 0.0 mm 0 W/m2
21:12 14.6 °C 13.1 °C 1017.3 hPa West 6.4 km/h 8 km/h 91% 0.2 mm 0 W/m2
21:17 14.6 °C 13.1 °C 1016.9 hPa West 9.7 km/h 11.3 km/h 91% 0.2 mm 0 W/m2
21:22 14.5 °C 13 °C 1016.9 hPa WNW 4.7 km/h 14.5 km/h 91% 0.2 mm 0 W/m2
21:27 14.6 °C 13.1 °C 1016.9 hPa West 6.4 km/h 14.5 km/h 91% 0.2 mm 0 W/m2
21:32 14.6 °C 13.1 °C 1016.9 hPa West 6.4 km/h 16.1 km/h 91% 0.2 mm 0 W/m2
21:37 14.6 °C 13.1 °C 1016.9 hPa West 11.1 km/h 16.1 km/h 91% 0.2 mm 0 W/m2
21:42 14.6 °C 13.1 °C 1016.9 hPa WSW 4.7 km/h 14.5 km/h 91% 0.2 mm 0 W/m2
21:47 14.6 °C 13.1 °C 1016.9 hPa WNW 9.7 km/h 11.3 km/h 91% 0.2 mm 0 W/m2
21:52 14.6 °C 13.1 °C 1016.9 hPa WSW 7.9 km/h 11.3 km/h 91% 0.2 mm 0 W/m2
21:57 14.6 °C 13.1 °C 1016.9 hPa West 9.7 km/h 14.5 km/h 91% 0.2 mm 0 W/m2
22:02 14.5 °C 13 °C 1016.9 hPa WSW 4.7 km/h 6.4 km/h 91% 0.2 mm 0 W/m2
22:07 14.5 °C 13.2 °C 1016.9 hPa West 4.7 km/h 9.7 km/h 92% 0.2 mm 0 W/m2
22:12 14.6 °C 13.3 °C 1016.9 hPa NW 3.2 km/h 11.3 km/h 92% 0.0 mm 0 W/m2
22:17 14.6 °C 13.3 °C 1016.9 hPa West 4.7 km/h 8 km/h 92% 0.0 mm 0 W/m2
22:22 14.6 °C 13.3 °C 1016.9 hPa West 3.2 km/h 8 km/h 92% 0.0 mm 0 W/m2
22:27 14.6 °C 13.3 °C 1016.9 hPa West 6.4 km/h 11.3 km/h 92% 0.0 mm 0 W/m2
22:32 14.6 °C 13.3 °C 1016.9 hPa West 3.2 km/h 6.4 km/h 92% 0.0 mm 0 W/m2
22:37 14.6 °C 13.3 °C 1016.9 hPa West 3.2 km/h 11.3 km/h 92% 0.0 mm 0 W/m2
22:42 14.6 °C 13.3 °C 1016.9 hPa West 4.7 km/h 9.7 km/h 92% 0.0 mm 0 W/m2
22:47 14.6 °C 13.3 °C 1016.9 hPa West 4.7 km/h 11.3 km/h 92% 0.0 mm 0 W/m2
22:52 14.6 °C 13.3 °C 1016.9 hPa WNW 9.7 km/h 12.9 km/h 92% 0.0 mm 0 W/m2
22:57 14.6 °C 13.3 °C 1016.9 hPa West 11.1 km/h 11.3 km/h 92% 0.0 mm 0 W/m2
23:02 14.6 °C 13.3 °C 1016.9 hPa WNW 4.7 km/h 11.3 km/h 92% 0.0 mm 0 W/m2
23:07 14.6 °C 13.3 °C 1016.9 hPa WNW 4.7 km/h 6.4 km/h 92% 0.0 mm 0 W/m2
23:12 14.6 °C 13.3 °C 1016.9 hPa West 4.7 km/h 6.4 km/h 92% 0.0 mm 0 W/m2
23:17 14.6 °C 13.3 °C 1016.9 hPa West 6.4 km/h 9.7 km/h 92% 0.0 mm 0 W/m2
23:22 14.7 °C 13.4 °C 1016.9 hPa West 4.7 km/h 12.9 km/h 92% 0.0 mm 0 W/m2
23:27 14.7 °C 13.4 °C 1016.9 hPa West 6.4 km/h 11.3 km/h 92% 0.0 mm 0 W/m2
23:32 14.7 °C 13.4 °C 1016.9 hPa West 6.4 km/h 11.3 km/h 92% 0.0 mm 0 W/m2
23:37 14.7 °C 13.2 °C 1016.9 hPa WSW 4.7 km/h 8 km/h 91% 0.0 mm 0 W/m2
23:42 14.7 °C 13.4 °C 1016.9 hPa West 3.2 km/h 9.7 km/h 92% 0.0 mm 0 W/m2
23:47 14.7 °C 13.4 °C 1016.9 hPa WNW 6.4 km/h 9.7 km/h 92% 0.0 mm 0 W/m2
23:52 14.7 °C 13.4 °C 1016.9 hPa West 6.4 km/h 9.7 km/h 92% 0.0 mm 0 W/m2
23:57 14.7 °C 13.4 °C 1016.9 hPa WNW 3.2 km/h 4.8 km/h 92% 0.0 mm 0 W/m2
Juneau County Weather
Compliments of Weather Underground - 4 mb